GEFSSGP_500_meanwind_000.txt.gz
Wind_Speed
24 23 25 24 20 17 18 22 24 25 24 22 19 16 15 16 16 17 17 17 16 16 15 15 15 14 14 15 15 15 15 15 16 18 19 18 16 15 14 14 14 16 16 16 16 18 18 17 18
25 24 24 25 21 18 21 24 24 21 21 20 18 15 15 17 19 19 18 16 14 14 12 11 12 13 14 15 15 14 13 13 14 17 20 19 17 15 16 17 16 18 18 18 17 17 18 19 19
26 25 25 25 23 22 24 25 22 18 18 19 17 14 15 18 20 21 18 17 14 11 9 10 12 13 14 15 15 14 12 12 14 17 20 20 19 18 18 18 18 20 21 21 19 19 19 21 20
27 25 25 25 24 25 26 25 21 18 18 18 15 14 16 19 20 20 18 17 13 11 11 11 12 13 15 16 16 16 14 12 12 16 19 20 20 20 20 20 21 21 22 23 21 20 19 20 20
29 27 26 26 25 27 29 27 22 20 18 17 14 13 19 22 21 17 16 16 13 12 12 12 13 13 14 16 17 17 16 15 14 14 17 20 21 21 23 23 24 23 22 21 21 20 19 20 20
31 29 28 27 27 28 31 29 24 21 19 16 15 13 19 24 23 19 16 15 12 11 12 13 13 13 14 16 17 18 18 18 18 17 17 18 20 22 24 25 24 23 21 20 20 20 20 21 22
34 32 30 29 30 31 31 29 25 22 21 18 16 16 19 21 23 20 16 15 13 12 13 13 13 14 14 16 17 18 19 20 22 22 21 21 23 23 23 24 24 24 23 21 22 22 24 26 27
36 35 33 30 31 34 32 28 26 24 23 19 17 18 16 14 18 19 16 15 14 14 14 13 14 14 13 14 16 18 19 21 23 25 26 26 26 26 25 25 25 25 25 25 26 28 30 32 33
40 37 33 31 32 35 33 27 25 23 23 19 17 17 15 12 14 17 18 16 15 15 14 13 12 11 12 12 15 17 19 21 23 25 28 29 29 28 27 27 28 28 29 30 31 32 35 37 38
43 38 31 32 35 36 33 27 23 24 23 20 17 17 17 15 15 16 17 16 17 16 15 13 10 10 11 13 15 18 20 22 24 25 26 28 28 28 28 28 29 29 30 33 35 37 38 40 42
46 37 33 35 38 35 33 29 22 23 22 20 18 19 19 19 18 19 19 18 19 19 17 13 12 13 14 17 19 21 23 23 23 24 24 24 24 25 26 26 28 30 32 36 38 40 41 44 46
46 38 36 37 39 35 33 30 24 21 22 22 21 23 24 21 21 21 21 21 22 21 18 16 15 15 16 19 22 24 26 26 23 21 21 20 21 21 24 26 28 31 34 38 41 43 44 46 46
45 39 38 39 40 36 32 30 26 21 26 24 22 24 27 23 21 22 22 22 23 22 20 19 20 20 19 19 21 24 26 26 23 21 22 23 23 25 28 30 33 35 36 39 40 40 40 38 38
45 41 41 43 41 36 31 29 25 30 28 23 22 22 25 24 22 22 24 24 24 23 22 21 22 25 26 24 25 26 28 27 25 24 25 27 28 30 32 34 36 36 35 35 35 35 35 36 36
49 46 45 44 41 37 33 29 29 33 26 24 22 22 24 25 23 23 24 24 22 22 22 23 24 25 25 25 25 27 29 29 28 28 29 30 33 34 35 36 35 35 34 34 34 34 35 36 38
53 50 47 42 40 37 35 30 33 30 28 23 23 21 23 26 25 25 24 23 21 21 23 24 25 26 27 26 25 27 27 28 30 32 34 35 37 37 37 36 35 34 35 35 36 38 39 41 42
57 53 46 40 39 39 36 32 34 29 28 24 22 20 24 27 28 26 23 23 22 22 23 24 26 27 29 29 27 27 28 28 31 35 37 38 38 37 35 35 34 35 37 38 40 42 44 46 47
60 54 44 38 38 38 37 32 32 28 26 23 21 22 25 28 28 26 24 24 24 25 26 27 27 27 28 28 26 27 30 30 32 35 35 35 35 35 35 35 36 38 40 42 44 46 48 50 50
55 47 41 37 39 37 36 30 31 31 26 24 23 23 27 30 28 26 25 26 27 29 30 28 25 25 27 27 27 29 31 32 33 33 32 33 34 35 37 39 40 42 44 46 48 48 48 49 51
52 47 42 40 37 34 34 29 33 33 27 26 26 26 29 29 28 26 26 27 29 30 30 25 23 24 26 27 28 29 31 33 34 33 34 35 37 38 40 41 42 44 46 47 47 48 49 50 53
52 47 42 37 34 33 31 28 31 32 29 29 28 28 28 27 25 24 25 27 28 27 24 24 24 25 27 27 29 29 31 31 33 34 36 38 38 39 40 42 44 44 45 46 48 49 52 54 58
48 46 42 36 34 32 30 26 29 31 30 30 29 29 29 28 25 24 26 27 26 25 25 26 28 28 27 28 30 32 32 33 34 36 37 38 39 41 42 43 44 45 47 49 52 55 58 61 65
46 46 41 35 34 30 27 23 25 32 30 30 30 30 30 29 27 26 26 25 25 26 27 28 29 29 29 31 33 34 34 35 36 36 37 38 39 41 43 45 46 49 51 54 58 62 66 69 72
48 46 40 34 32 28 25 23 24 30 30 30 31 31 31 30 30 30 27 26 26 26 27 29 30 30 31 33 33 34 35 36 36 37 38 39 41 43 46 48 51 54 56 60 64 67 70 72 75
48 43 36 33 31 27 25 25 23 29 30 31 31 32 32 31 31 31 30 29 27 27 28 29 31 32 33 33 33 34 35 36 37 38 40 42 44 46 50 53 55 58 60 63 66 68 71 75 79
48 41 36 34 29 25 26 25 23 26 29 30 31 30 30 32 32 33 31 30 28 28 29 30 31 33 34 33 33 34 35 36 37 39 41 44 48 51 53 56 59 61 63 65 68 72 76 80 83
44 41 37 32 27 26 24 24 21 23 26 28 27 27 28 29 31 32 32 30 29 29 30 30 31 33 33 33 33 34 35 36 38 42 45 49 51 53 57 60 62 64 66 69 73 77 80 83 87
36 36 35 33 28 26 23 23 22 21 23 24 23 24 26 28 30 32 31 30 31 31 30 29 30 32 32 32 34 35 37 40 44 47 49 52 55 59 62 64 66 68 71 74 78 81 84 88 91
41 38 36 32 30 27 22 22 22 21 20 21 22 24 27 29 32 32 30 31 30 29 28 28 30 31 32 34 36 38 41 45 48 50 53 57 61 64 66 67 69 72 76 79 81 85 88 92 94
38 39 35 33 32 28 24 20 21 22 21 21 23 25 27 29 30 29 27 27 27 27 29 30 31 32 34 36 39 42 45 49 52 55 58 61 64 67 68 71 74 77 80 83 86 89 92 94 96

GEFSSGP_500_meanwind_006.txt.gz
Wind_Speed
25 23 22 21 21 21 18 20 24 27 28 24 21 20 19 22 25 26 25 23 23 22 21 19 19 17 16 16 15 15 16 14 13 14 16 17 18 18 17 17 16 15 17 17 17 18 18 18 18
27 24 24 22 21 20 19 21 27 27 23 20 21 21 21 28 27 26 27 26 24 22 20 18 17 15 14 15 16 15 16 15 13 13 14 14 16 17 16 17 16 17 18 18 18 20 20 21 21
30 27 25 23 21 20 24 28 29 22 19 20 20 21 25 29 24 26 28 27 25 22 19 18 15 14 13 15 15 15 16 15 14 13 13 13 15 16 17 17 18 19 19 20 20 20 21 22 22
32 30 27 25 23 21 25 29 24 18 21 19 19 22 27 26 25 26 26 27 25 22 18 17 14 13 14 14 13 13 15 15 15 14 14 13 14 17 19 20 20 21 21 22 23 22 22 22 22
34 33 30 26 25 24 24 28 26 21 22 20 20 22 26 23 24 25 26 26 24 21 17 16 13 13 14 13 12 12 13 14 14 15 15 15 15 16 19 20 22 22 23 24 23 23 23 22 21
35 36 33 28 26 26 26 27 26 25 25 22 21 21 26 21 23 24 25 25 22 19 16 14 12 13 14 13 12 13 13 13 13 15 16 17 18 19 19 20 21 22 21 21 21 22 22 21 21
37 37 36 31 28 28 28 27 25 28 26 25 23 22 29 22 23 24 24 23 22 18 15 13 13 14 14 12 12 12 12 12 13 14 16 17 19 21 22 23 23 23 22 22 23 23 24 25 26
39 40 38 35 31 29 30 30 26 28 26 27 23 24 33 19 21 24 23 22 23 20 16 14 14 15 14 12 12 11 10 11 12 14 15 17 19 21 22 24 25 25 25 26 26 27 28 29 30
41 42 41 36 34 31 32 33 27 29 27 27 26 28 34 24 23 23 23 22 23 22 19 17 16 16 15 13 12 11 12 12 14 15 16 17 18 20 21 22 24 25 27 28 28 29 30 31 32
44 41 39 37 36 35 36 36 29 27 27 28 29 32 36 30 26 24 24 23 23 22 21 20 19 18 16 15 13 13 15 16 17 18 18 19 19 20 20 21 22 23 25 26 27 28 29 31 34
45 42 37 39 38 39 40 37 31 28 27 28 31 35 36 29 25 26 25 24 23 24 23 22 20 19 17 16 15 16 18 20 22 22 22 21 21 21 21 22 22 24 25 27 28 30 32 34 36
43 42 41 39 40 43 42 38 33 30 26 29 33 34 32 28 25 27 27 25 25 24 23 22 21 21 19 18 17 18 21 23 25 27 27 26 25 24 24 25 25 27 28 30 32 34 36 37 38
45 42 43 41 41 46 44 40 36 31 28 31 34 33 31 29 28 28 28 27 27 24 22 22 22 21 22 22 22 23 26 28 29 30 31 31 30 28 27 28 29 31 32 33 34 36 37 38 38
49 46 44 43 43 46 46 42 39 31 30 34 34 30 28 28 27 27 28 28 28 24 22 22 22 22 22 23 24 26 29 31 31 32 33 33 33 32 31 32 33 34 35 36 36 36 36 36 36
53 51 46 43 43 45 47 46 40 32 35 35 32 31 29 27 27 28 29 28 27 24 23 22 23 24 25 26 28 30 32 33 33 32 33 33 33 33 34 35 36 36 35 34 33 32 32 33 33
56 54 48 42 44 46 48 48 39 36 39 35 30 32 30 27 29 28 27 29 28 25 23 23 24 25 26 27 30 32 33 34 34 32 31 31 32 33 35 36 34 32 32 31 31 30 31 32 33
59 57 50 44 45 46 48 47 39 39 40 34 31 31 30 29 29 27 27 29 29 25 23 23 23 24 26 28 30 33 35 35 33 32 32 32 34 35 36 35 33 32 32 32 32 32 33 34 35
58 57 51 46 46 47 48 47 40 41 40 35 32 32 30 29 28 27 28 29 29 26 23 23 23 25 28 30 33 35 35 33 32 32 33 34 35 36 38 38 37 36 35 34 34 34 35 37 38
51 52 52 48 46 48 50 47 42 41 42 36 34 33 30 29 29 29 28 30 30 28 25 25 26 28 31 33 35 35 33 32 33 34 35 35 36 38 39 39 38 37 37 37 37 37 39 41 42
51 51 50 48 47 48 50 49 44 42 42 37 35 33 30 29 30 29 29 30 30 28 27 27 29 30 32 34 35 33 32 33 35 36 36 37 39 40 40 38 37 38 39 39 40 42 43 45 47
53 52 48 45 44 48 50 49 45 41 40 37 35 33 30 29 29 29 29 30 29 29 28 29 30 32 35 36 34 33 34 36 36 36 38 40 41 40 38 38 39 40 41 42 44 45 47 49 52
54 51 47 45 44 46 49 48 44 41 40 37 33 33 30 30 29 29 29 29 29 29 29 30 31 33 35 33 33 34 35 36 37 39 40 41 41 40 40 40 41 42 43 45 47 49 52 55 58
53 49 47 44 45 46 47 47 43 42 39 34 32 32 29 30 30 29 29 28 28 29 29 30 31 32 32 33 34 36 37 38 39 40 41 40 40 40 40 41 42 44 46 49 51 54 57 60 63
52 49 46 46 45 44 43 44 41 40 35 31 31 31 28 29 31 30 29 28 28 29 30 31 32 32 33 35 37 38 39 39 39 40 41 40 39 39 40 42 44 47 50 52 55 58 61 64 67
54 49 47 49 48 45 42 42 39 38 35 30 28 28 28 29 31 30 29 28 29 30 31 32 34 35 36 38 38 39 39 39 40 40 39 39 39 41 43 46 48 51 53 56 59 62 65 67 69
53 52 49 49 51 46 43 42 38 38 29 26 26 26 27 29 30 29 28 28 29 30 32 34 36 37 38 38 38 39 39 39 38 37 38 39 41 44 46 49 51 54 57 60 63 66 68 70 72
55 51 37 36 42 41 41 38 36 32 27 25 23 22 23 27 29 28 27 27 29 32 34 35 36 37 37 37 38 38 37 37 37 37 39 41 43 46 49 52 55 58 61 64 67 69 70 71 72
50 43 34 32 35 38 39 37 34 28 25 23 21 20 22 24 27 29 27 27 29 31 33 34 35 37 37 37 36 35 35 36 37 38 41 43 46 49 52 56 59 62 65 68 70 71 71 72 74
42 40 35 33 35 38 38 33 31 24 21 21 20 21 22 24 27 28 28 28 30 31 32 33 35 36 36 35 34 34 35 36 38 40 44 47 50 54 57 61 63 66 68 70 71 71 72 74 77
37 39 36 34 36 36 32 29 24 20 20 20 20 21 23 24 26 27 27 29 31 32 33 34 35 35 34 33 34 34 35 37 40 43 47 51 54 58 61 65 67 69 69 70 70 71 73 77 82

GEFSSGP_500_meanwind_012.txt.gz
Wind_Speed
29 26 24 20 18 16 16 21 26 26 24 21 18 19 23 25 25 26 24 23 21 19 19 20 19 17 16 16 15 13 13 12 11 11 11 11 12 14 17 18 18 17 16 15 16 16 17 18 20
31 30 27 24 20 18 20 22 24 24 23 21 20 22 25 25 25 26 24 23 21 19 19 19 18 17 16 15 14 13 13 13 12 12 11 11 11 13 16 19 19 18 17 17 18 18 19 19 20
34 33 30 28 24 22 22 22 22 21 20 20 21 24 26 25 23 24 23 23 22 20 20 19 18 18 17 15 13 12 13 13 12 12 12 13 12 12 15 18 19 20 20 20 20 21 21 22 23
33 34 34 31 26 25 25 23 20 20 19 19 22 25 27 25 23 23 22 22 22 21 20 19 19 18 17 15 13 12 13 13 12 12 13 14 15 14 14 15 18 21 23 23 23 24 25 26 27
30 33 34 33 30 28 28 27 23 20 21 21 23 25 25 25 22 21 20 20 21 20 20 20 19 19 18 16 13 13 14 13 13 13 14 15 16 17 17 17 18 19 21 23 24 25 26 27 28
32 32 33 32 31 31 31 30 26 21 22 23 24 24 25 25 23 22 20 19 21 20 19 20 20 20 20 17 15 14 14 13 13 13 14 15 16 17 19 20 21 22 23 24 25 26 26 27 28
33 33 32 31 32 33 33 31 27 23 23 23 22 23 24 24 24 23 22 20 20 19 18 19 21 21 20 19 16 16 15 13 12 12 12 12 13 14 16 18 20 22 24 26 27 28 28 29 29
33 33 32 30 31 31 34 34 30 26 25 24 22 23 25 25 25 24 22 21 20 19 18 20 22 22 21 20 18 18 16 14 13 13 13 12 13 13 14 15 17 19 21 23 24 26 28 30 30
33 31 28 28 29 29 34 36 35 31 26 24 22 23 26 28 29 27 24 22 20 19 19 20 24 24 23 23 20 19 18 16 16 16 15 15 17 17 17 18 18 19 20 21 22 23 25 28 30
33 29 25 26 28 30 35 38 37 34 28 24 23 24 28 29 29 28 26 24 23 21 21 21 25 26 25 24 22 22 20 19 18 19 19 20 22 23 23 23 23 23 23 24 24 25 26 28 30
33 29 28 27 29 33 37 39 40 36 30 25 25 26 28 28 26 27 27 25 24 22 22 22 25 27 27 26 24 23 22 21 21 22 23 25 26 28 29 29 29 29 28 28 29 29 30 31 33
36 33 32 31 32 34 37 40 42 39 32 29 27 27 29 28 26 26 27 26 25 24 23 23 24 27 28 27 26 24 24 24 23 24 25 27 29 30 32 32 32 32 32 32 33 34 34 35 36
40 38 38 36 36 36 38 40 42 41 35 33 31 29 30 30 26 25 27 26 26 25 25 24 24 26 27 27 28 27 27 27 26 26 27 29 30 32 33 34 33 33 32 32 34 35 36 36 35
43 42 42 42 40 39 40 41 41 38 37 37 34 32 32 31 26 25 26 25 25 25 26 26 26 26 25 25 26 27 28 29 28 28 29 30 30 31 30 30 30 30 31 32 33 35 35 35 34
44 44 44 44 44 43 43 43 41 38 37 38 38 36 34 31 27 25 26 25 25 25 26 27 28 27 25 24 25 26 28 28 28 29 29 29 29 28 27 26 28 29 30 31 33 35 36 35 35
45 46 45 45 46 46 47 43 41 41 38 39 40 39 37 32 27 26 27 26 25 25 26 27 28 27 25 24 24 25 26 27 27 28 28 28 27 26 26 27 29 31 32 34 36 37 37 36 36
47 47 47 46 47 47 48 45 43 43 39 39 40 40 39 34 28 27 28 27 26 25 26 27 26 25 24 23 23 24 24 25 26 27 29 28 27 26 27 30 32 34 35 37 40 40 39 37 37
46 46 47 48 47 48 49 48 47 46 43 40 40 41 40 36 30 28 28 27 27 27 27 27 26 24 23 23 23 23 24 25 27 29 30 28 27 28 31 33 35 37 38 40 42 42 40 39 38
49 49 49 50 50 51 52 51 50 48 46 42 41 41 40 36 32 29 27 27 27 28 28 27 25 24 25 24 23 23 25 27 29 30 30 29 29 31 34 36 38 39 41 42 43 42 42 41 39
51 51 50 51 51 53 54 54 52 51 48 45 43 41 39 36 32 29 27 27 28 28 28 28 26 26 26 25 25 26 27 28 30 29 29 29 31 34 37 39 41 42 43 43 42 40 40 41 42
52 52 50 49 49 53 54 55 53 52 50 47 45 42 39 35 33 30 28 27 28 29 29 29 27 27 27 27 28 28 28 28 28 27 28 31 34 37 39 41 42 43 42 40 39 40 41 43 46
51 49 49 48 50 51 53 56 54 53 52 49 46 43 38 34 32 30 29 28 28 29 30 29 28 28 29 30 30 30 29 29 28 29 31 34 37 39 41 41 42 41 39 39 41 43 45 47 50
48 46 48 49 51 52 52 56 55 54 54 51 45 41 37 34 32 30 30 29 28 29 29 29 28 29 30 31 31 31 30 30 31 33 35 37 39 40 41 41 40 40 41 42 44 47 49 52 55
46 46 48 50 51 56 51 55 56 54 52 49 44 41 37 34 31 30 29 29 29 29 29 29 29 30 31 32 32 31 31 32 34 36 38 39 40 40 40 40 40 42 44 45 47 50 54 57 60
44 45 47 49 53 55 50 54 55 49 47 46 43 39 35 32 30 29 29 29 30 30 30 30 30 31 32 32 32 32 33 35 37 38 38 39 40 40 40 40 42 44 46 48 50 54 58 61 63
39 42 45 46 49 49 49 53 50 43 41 42 40 37 34 32 30 29 30 30 31 31 30 30 30 31 32 32 33 34 35 37 38 38 39 40 40 40 41 42 44 46 48 51 54 58 61 63 65
35 40 40 41 42 44 48 49 46 39 39 39 37 35 32 29 28 29 30 30 30 30 30 30 30 31 31 32 33 35 37 38 38 39 40 39 40 41 42 44 47 49 51 54 58 62 65 67 68
33 34 39 41 40 41 42 44 40 37 37 35 32 30 28 26 27 28 28 29 29 29 30 30 30 30 31 32 34 36 37 37 38 39 39 40 41 43 45 47 50 52 55 58 62 66 68 69 69
31 36 39 40 40 37 36 37 33 31 30 27 26 25 24 23 24 25 27 27 28 29 28 29 30 30 31 32 34 36 37 38 38 38 39 41 43 45 48 50 53 55 59 63 66 69 70 70 69
26 31 37 42 38 32 26 26 28 29 27 26 25 24 22 22 23 24 25 26 26 26 27 28 29 30 31 33 34 36 37 37 38 39 41 44 46 48 50 53 56 59 63 67 70 70 70 69 70

GEFSSGP_500_meanwind_018.txt.gz
Wind_Speed
32 31 31 29 27 25 22 21 22 22 21 22 22 22 21 20 21 22 20 19 19 19 18 18 18 17 17 17 17 16 15 14 13 12 12 12 12 12 12 13 15 17 18 19 20 21 21 21 22
32 33 33 32 30 27 25 24 23 22 21 21 22 23 22 22 22 20 20 20 19 19 19 19 19 19 18 18 18 16 15 14 13 12 12 12 12 12 12 12 14 17 18 19 20 21 21 21 21
30 33 35 35 32 28 27 26 24 22 21 20 22 23 23 24 23 23 22 19 19 19 19 20 20 20 19 19 18 17 15 13 13 12 12 12 12 12 12 13 13 15 17 19 20 21 21 22 22
29 31 34 36 33 29 29 28 26 24 22 21 21 22 23 24 25 25 23 21 20 19 19 20 21 20 20 18 18 18 16 14 13 13 12 12 12 12 12 13 15 15 16 17 19 21 22 24 25
32 30 31 31 31 30 31 30 29 27 25 23 22 21 23 24 25 26 25 23 21 20 20 21 21 20 19 18 17 18 17 15 14 13 13 13 12 12 13 14 15 17 19 20 21 22 23 25 26
36 33 31 26 26 30 34 34 32 29 28 27 25 23 23 25 26 26 25 23 21 20 20 21 21 20 19 18 18 19 19 17 15 14 13 13 12 11 12 13 14 16 18 19 21 24 26 28 29
38 37 34 27 26 29 32 35 34 31 31 31 29 26 25 26 27 26 25 23 21 19 19 19 19 19 19 19 19 20 20 18 17 15 14 14 13 11 11 12 13 14 15 17 19 21 23 25 27
37 39 35 29 26 27 31 35 35 34 33 34 32 29 27 28 27 26 25 23 21 19 19 18 18 19 20 20 21 21 21 20 19 17 16 16 15 14 14 15 16 18 19 20 22 24 24 25 26
37 38 34 28 27 28 32 36 37 36 36 36 33 31 29 29 29 28 26 24 22 20 19 19 18 18 19 20 22 22 22 22 21 20 19 18 18 17 18 19 21 23 25 27 28 29 29 29 29
36 36 29 28 29 30 35 39 40 38 37 37 35 33 32 31 30 29 27 25 23 22 21 20 20 20 19 20 22 24 24 24 23 22 21 20 20 20 21 23 25 28 30 32 34 35 35 35 34
36 35 30 30 30 32 35 39 40 39 37 37 38 37 36 33 31 29 27 26 26 25 24 23 23 23 22 22 23 24 25 25 25 25 24 22 22 23 24 26 28 30 32 33 34 34 34 34 35
37 35 33 32 33 34 35 37 38 37 36 37 38 39 37 35 33 30 28 27 28 27 26 26 26 25 25 25 23 23 25 26 27 27 26 24 24 25 26 28 30 31 31 31 30 29 28 29 30
36 36 37 36 36 36 35 36 36 34 33 36 37 38 38 37 35 32 29 28 27 27 27 28 28 28 28 27 24 23 23 24 26 27 26 25 25 27 28 29 30 30 30 28 26 26 26 27 28
34 36 37 38 39 39 38 36 36 31 34 35 36 35 37 38 37 34 31 27 26 27 28 30 30 31 30 28 26 23 21 22 25 26 26 27 27 28 29 30 30 30 29 27 26 27 28 30 32
33 36 37 38 40 41 43 42 37 34 36 37 35 34 35 37 38 37 34 29 26 27 29 30 31 32 31 29 27 23 21 22 24 25 26 26 27 28 29 29 29 30 29 28 28 29 32 34 36
34 36 37 38 41 43 47 46 40 40 40 39 38 35 34 35 38 40 37 32 29 28 29 30 31 31 31 30 27 24 23 24 25 26 26 26 27 28 29 29 31 31 30 29 30 32 34 37 39
35 37 38 39 42 46 50 51 47 44 44 42 41 39 36 35 38 41 40 36 33 31 30 30 31 31 31 29 27 25 26 27 27 26 26 27 27 28 30 31 32 31 31 31 32 35 37 39 41
38 40 41 42 45 48 51 52 51 49 48 45 43 42 39 38 39 42 41 39 36 33 31 31 30 31 30 29 27 27 28 29 28 27 27 28 29 30 31 32 32 32 32 33 35 37 39 40 42
42 43 44 45 46 49 51 52 52 51 50 48 46 44 41 40 41 42 41 40 38 35 33 32 32 31 30 29 28 29 30 30 29 28 28 29 30 31 32 31 31 31 32 34 37 39 40 41 42
44 46 47 47 48 49 51 53 53 53 51 49 48 47 44 42 42 43 41 40 39 37 35 34 34 33 31 31 30 30 30 30 30 30 30 30 31 32 32 32 32 33 35 37 39 41 42 43 42
47 49 49 51 51 52 52 53 52 52 52 50 49 48 46 45 45 45 42 40 39 39 37 35 36 35 33 32 31 31 30 30 31 31 32 32 33 34 35 35 36 37 39 41 42 43 44 44 43
52 52 54 55 56 55 55 56 51 51 52 51 49 48 48 47 47 46 43 40 39 39 38 37 37 36 34 32 32 32 31 31 32 33 34 35 36 37 38 39 40 41 42 43 45 45 45 45 45
55 56 57 58 60 60 57 59 54 50 50 49 49 49 49 48 48 47 43 40 40 40 39 38 38 36 33 32 32 32 31 31 33 34 36 37 39 40 42 42 43 44 45 46 46 46 46 46 47
56 56 58 59 61 64 61 62 58 51 47 47 47 49 49 48 47 46 43 41 40 40 39 38 38 36 34 32 32 32 32 32 33 35 37 39 41 42 43 44 45 46 46 47 47 46 47 48 50
53 53 55 58 62 66 64 65 61 55 48 46 46 48 49 48 47 46 43 41 40 40 39 38 37 36 34 33 33 32 32 33 34 37 38 40 42 43 44 45 46 46 47 46 46 47 48 51 54
45 47 49 53 57 60 62 66 62 58 54 48 46 47 49 48 47 46 43 41 40 40 39 38 38 36 35 34 33 33 33 34 36 38 39 41 42 44 45 45 46 47 46 47 48 49 51 54 58
38 39 40 44 48 52 57 59 59 57 55 50 46 46 47 47 47 45 43 42 41 40 38 38 38 37 36 35 34 34 34 35 37 38 40 42 43 43 44 45 46 46 46 48 50 52 55 58 61
32 35 37 40 44 47 49 47 46 45 46 47 46 45 47 47 45 44 42 42 41 40 39 39 38 38 36 35 34 34 35 36 37 39 40 41 42 42 43 44 45 46 48 50 53 55 58 61 64
30 33 36 40 42 45 45 37 31 32 35 39 42 45 46 45 43 42 41 40 40 40 39 39 38 37 36 34 34 35 36 37 38 39 40 40 40 42 43 44 45 48 50 53 55 58 60 63 66
28 31 34 37 37 38 38 26 23 24 27 33 40 44 44 43 41 40 40 39 40 40 39 38 38 36 35 35 35 36 36 37 37 38 39 40 41 42 42 44 47 50 53 56 58 60 62 66 69

GEFSSGP_500_meanwind_024.txt.gz
Wind_Speed
21 23 27 29 29 29 28 26 25 24 22 20 20 20 20 22 22 21 19 18 18 18 18 18 18 18 18 18 16 15 14 14 13 11 11 10 10 11 11 12 12 13 14 15 16 17 18 19 20
21 22 25 28 30 29 29 29 28 26 23 21 20 20 21 22 23 23 22 20 19 19 19 19 19 19 19 19 18 16 16 15 14 13 12 11 11 12 12 12 13 13 14 15 17 18 19 20 21
23 24 25 26 26 27 29 31 31 29 26 24 22 21 21 22 22 23 23 22 21 21 20 20 20 20 20 19 19 18 17 16 15 14 14 13 13 13 13 13 14 14 14 14 15 16 17 19 20
26 27 28 26 23 23 29 32 32 31 29 26 24 22 22 21 23 23 23 23 23 23 23 23 22 21 21 20 19 18 17 17 16 16 15 15 14 14 14 14 14 14 14 15 15 16 17 18 19
29 30 30 27 21 22 27 32 33 33 31 29 26 24 23 23 23 23 23 24 24 25 25 26 25 24 23 21 20 19 18 18 17 17 17 16 15 15 14 14 15 15 15 15 15 16 17 18 19
31 31 31 27 22 23 27 31 33 34 34 32 29 27 26 25 24 24 23 24 24 25 26 26 27 27 25 22 21 20 19 19 19 19 19 18 17 16 15 15 15 15 14 14 14 15 16 16 17
31 31 31 27 25 25 27 30 32 34 35 35 33 30 29 28 27 26 25 24 24 24 25 26 27 27 25 23 21 21 20 20 20 20 20 20 18 18 17 16 16 15 15 15 15 16 18 19 20
31 32 30 26 24 26 29 32 31 32 34 36 36 35 33 31 30 29 27 26 25 24 24 25 26 25 24 23 22 21 21 21 21 21 22 21 20 20 20 19 18 18 18 18 19 20 22 24 25
31 32 28 23 24 28 32 34 35 33 33 35 36 37 36 35 34 33 31 30 28 27 26 27 27 26 26 24 23 22 21 21 22 23 23 23 23 22 22 22 21 21 21 21 22 23 24 26 27
31 30 25 24 26 30 34 37 37 36 35 35 36 37 37 37 37 36 35 33 31 30 29 29 29 29 28 27 26 24 22 22 23 24 25 25 25 25 24 24 23 24 23 24 24 25 26 26 25
31 28 26 27 28 30 33 37 39 39 37 35 36 36 35 36 37 37 37 36 34 33 31 31 31 31 30 30 29 27 25 23 23 24 26 27 28 27 26 26 25 25 26 26 26 27 27 26 25
31 29 27 28 28 29 31 34 38 39 36 36 35 35 34 34 34 36 37 38 36 34 33 32 33 34 33 33 31 30 28 26 25 25 27 29 30 29 28 27 27 27 27 27 27 28 28 27 25
30 28 27 27 27 28 30 32 36 38 36 37 35 33 32 32 33 34 35 37 36 35 34 34 34 35 36 36 35 34 32 30 28 28 29 30 30 30 29 28 28 28 28 28 29 29 29 29 28
29 27 26 25 26 26 28 32 36 33 37 37 36 33 31 31 31 33 33 34 35 36 36 35 35 35 36 37 37 36 35 33 31 30 31 31 31 30 29 28 29 29 29 29 30 30 30 31 30
30 28 26 25 25 26 27 29 32 32 38 39 37 35 33 31 31 31 32 34 36 37 37 36 36 36 36 36 37 37 36 35 34 33 32 31 31 30 29 29 29 30 30 31 31 31 32 32 31
30 29 27 26 26 26 27 26 29 33 37 39 39 39 37 34 32 31 32 34 37 38 39 38 37 37 37 37 37 36 36 36 36 35 33 33 32 31 30 30 30 31 31 31 32 33 34 34 33
30 30 29 28 28 27 27 26 27 31 34 37 40 42 42 39 36 34 34 35 37 39 41 40 39 38 38 37 37 36 36 36 36 36 35 34 33 32 32 31 32 32 32 33 33 34 34 34 34
31 31 31 30 30 30 31 31 29 31 33 35 39 42 44 44 41 39 38 37 38 40 42 42 41 40 39 38 36 35 35 36 37 36 35 35 35 34 33 33 34 34 34 34 35 35 35 35 35
30 30 31 32 33 35 36 37 35 35 35 36 39 42 45 46 46 46 43 41 40 42 42 42 42 43 42 40 37 36 36 37 38 37 36 36 35 35 35 35 35 35 35 35 36 36 36 37 38
29 31 33 36 38 40 41 42 41 41 40 40 42 44 46 48 49 50 49 46 43 43 43 43 43 44 44 42 40 38 38 38 38 37 36 35 35 35 36 37 37 37 37 38 38 38 39 40 41
31 34 37 40 43 45 48 49 47 48 46 46 46 46 47 49 50 51 51 50 47 44 44 44 43 44 45 44 42 40 40 39 38 36 35 35 36 36 37 38 38 39 40 40 41 41 42 43 44
34 37 41 44 48 50 52 57 54 54 52 50 49 50 50 50 51 51 52 52 49 46 45 44 43 44 45 44 43 41 41 40 38 37 36 36 37 37 38 39 40 41 42 43 43 44 45 46 47
37 41 44 48 51 55 57 62 61 60 58 55 54 54 54 53 52 52 52 52 51 49 47 45 44 44 44 44 42 42 41 40 38 37 37 37 38 39 39 40 41 42 43 44 45 46 47 49 50
39 43 46 49 52 57 56 60 63 59 61 60 59 58 57 57 55 53 53 53 52 51 49 46 44 44 44 43 42 41 41 40 39 37 38 38 39 39 40 41 42 43 44 45 46 48 49 50 52
38 41 45 49 52 54 55 58 58 55 59 61 62 62 61 59 57 55 53 53 53 51 49 46 44 43 43 42 41 40 41 40 39 38 38 39 39 39 40 41 42 43 44 46 47 48 50 51 53
38 41 44 49 52 54 56 55 50 49 54 58 60 60 61 60 59 56 53 53 53 51 49 46 44 43 43 42 41 40 40 40 39 39 39 39 39 40 41 42 43 43 44 46 47 49 50 52 53
38 40 42 46 49 50 50 48 44 41 45 48 51 54 56 57 58 56 53 52 52 51 49 46 44 44 43 42 41 40 40 40 40 39 39 39 40 41 42 42 43 43 44 46 47 49 51 53 53
36 37 38 41 46 49 48 44 39 35 38 39 40 42 46 50 54 55 53 51 50 49 48 46 45 44 43 42 41 41 40 40 39 38 38 39 40 41 41 42 42 43 44 45 47 50 52 53 55
33 33 36 41 44 47 47 40 35 32 32 34 34 35 38 43 50 53 52 50 49 48 46 45 45 44 44 43 41 40 39 39 39 38 38 39 40 40 41 41 42 43 44 46 49 50 52 54 57
30 31 35 39 41 42 43 35 30 28 28 29 30 31 34 39 46 51 50 48 47 45 44 44 44 44 43 42 41 40 39 39 38 38 38 39 40 40 41 42 42 44 45 47 49 52 54 57 59

GEFSSGP_500_meanwind_030.txt.gz
Wind_Speed
29 30 30 30 30 29 25 24 26 25 23 24 22 19 19 22 27 27 24 22 22 22 22 21 20 20 21 21 22 22 22 21 20 19 18 17 16 16 16 16 16 17 17 16 16 16 16 16 17
29 29 29 30 29 27 24 26 29 28 28 24 22 22 21 25 29 24 24 23 23 24 23 23 22 22 22 22 23 23 23 23 22 21 20 19 17 17 16 16 17 17 17 17 17 16 17 17 17
28 29 29 28 26 22 22 25 31 32 28 26 26 25 24 30 28 21 25 25 25 24 24 24 24 23 22 22 23 23 24 24 23 22 21 20 19 18 17 17 17 18 18 18 17 17 16 16 16
30 30 29 27 22 19 22 27 31 28 27 28 27 27 29 31 25 22 25 26 25 25 25 25 25 24 24 23 23 23 24 24 24 23 22 21 20 20 19 18 18 18 18 18 17 17 17 16 16
32 32 31 27 21 20 23 27 30 24 26 28 29 28 34 30 28 26 27 26 26 25 25 26 25 25 25 25 25 25 24 24 24 24 24 23 22 21 20 19 19 19 19 18 18 18 18 17 17
34 33 33 28 22 22 25 28 30 25 26 28 28 29 36 32 29 28 27 28 27 26 26 27 26 26 26 26 26 25 25 25 25 25 24 23 23 22 21 20 20 19 19 18 18 18 18 17 17
36 36 34 30 26 25 26 29 32 28 27 27 28 29 36 36 30 30 29 30 29 27 27 28 27 27 27 27 27 26 25 25 24 24 24 23 23 23 22 21 21 20 19 18 18 18 19 19 19
37 38 36 33 28 25 26 31 34 31 29 29 30 27 36 36 29 31 31 31 30 30 28 29 28 28 28 27 27 26 26 25 24 23 23 23 23 23 23 22 22 21 20 20 20 21 21 21 22
39 41 38 32 29 27 29 35 36 31 31 31 30 29 34 33 29 30 31 32 32 32 31 30 29 29 29 28 28 28 27 26 25 24 23 23 23 23 23 23 24 23 23 23 23 23 24 25 26
41 41 37 32 31 32 33 37 37 33 32 33 33 31 31 32 31 31 33 34 34 34 33 32 31 31 30 30 30 29 29 28 27 26 25 24 23 23 24 24 24 25 25 26 26 26 27 27 28
42 41 37 34 34 36 35 36 35 35 34 33 34 33 33 33 31 30 31 33 34 35 35 34 34 33 33 32 32 31 31 30 30 29 27 26 25 24 24 24 25 26 27 28 28 29 29 29 29
42 41 39 37 37 36 33 35 35 36 35 34 35 36 34 31 30 30 31 32 33 34 34 35 36 35 35 34 33 32 32 32 31 30 29 28 27 26 25 25 26 27 28 29 30 30 31 31 31
44 42 40 39 38 35 34 36 36 36 35 34 35 35 32 29 30 31 32 32 33 33 33 34 36 36 36 36 35 34 33 33 32 32 31 30 30 29 28 27 27 27 29 30 30 31 32 33 33
44 42 41 39 37 36 36 36 36 34 34 35 36 34 31 30 31 33 33 32 32 32 33 33 35 36 37 36 36 35 34 34 33 33 33 32 32 31 30 29 29 29 30 31 31 32 32 33 33
43 42 41 39 38 37 38 37 35 34 35 35 34 33 31 30 32 33 33 32 32 32 34 34 34 36 36 37 37 36 35 34 34 34 34 34 34 33 33 32 31 31 31 32 32 33 33 34 34
44 43 42 40 40 39 39 36 34 35 35 33 33 32 31 30 31 32 32 33 33 34 34 34 34 34 35 36 37 37 36 35 34 34 35 35 34 34 34 34 34 34 34 34 34 34 34 35 35
43 43 42 40 41 40 39 36 35 35 34 33 32 32 31 30 29 31 32 33 35 36 36 36 34 33 34 35 37 37 37 36 35 34 34 34 34 35 35 35 35 35 36 36 37 37 36 36 36
41 42 41 41 41 40 39 38 36 36 35 33 33 33 32 31 30 31 32 33 35 37 38 38 37 35 35 35 36 37 37 37 36 35 34 34 35 35 35 34 35 36 37 38 39 39 38 38 38
40 40 39 39 40 40 39 38 37 36 35 34 35 35 36 35 34 34 34 35 36 37 39 41 41 38 38 37 36 37 38 38 38 37 35 35 35 35 35 35 35 37 38 39 39 40 40 40 40
35 36 36 37 38 39 39 38 37 37 37 37 38 38 39 39 39 39 38 38 38 39 40 41 43 43 41 40 38 39 39 39 38 38 37 37 36 36 36 36 36 37 38 39 39 39 41 41 42
32 33 34 35 35 37 39 39 38 39 39 40 40 41 42 44 44 44 44 44 43 43 43 43 44 46 45 44 43 42 40 39 39 39 39 39 39 39 38 37 37 38 39 39 39 39 40 42 43
29 29 29 30 32 33 36 40 38 38 41 43 45 46 47 49 50 50 50 50 49 48 48 48 48 49 50 49 47 45 43 42 41 41 41 41 41 40 39 38 38 39 39 39 40 41 42 43 44
25 25 26 28 31 34 35 40 40 42 44 48 50 52 53 54 55 56 56 56 55 54 53 52 51 51 51 51 49 48 47 45 43 42 41 41 41 41 40 40 40 40 39 39 40 42 43 45 46
22 23 26 29 32 35 37 41 42 45 49 52 54 56 57 57 58 59 59 58 58 58 58 57 55 53 52 51 50 50 49 47 45 43 42 42 42 42 41 41 40 40 39 40 41 43 44 46 47
22 24 27 31 34 36 40 44 43 46 49 52 55 56 58 60 60 60 60 60 60 60 59 59 58 55 53 52 51 50 50 48 46 45 44 43 43 42 42 41 40 40 40 40 42 44 45 47 48
23 26 29 34 37 39 42 45 44 46 49 52 53 54 54 55 57 58 58 58 58 59 60 60 59 56 54 52 51 51 50 48 46 45 44 43 43 42 42 41 40 40 40 41 43 44 46 47 49
25 28 31 35 38 41 42 43 43 45 46 48 51 52 53 53 53 54 55 54 55 57 58 60 59 57 55 53 51 50 49 47 46 46 44 44 43 43 42 41 40 40 41 42 43 45 47 48 49
27 29 31 34 37 40 40 41 41 40 43 47 50 52 52 53 52 51 51 50 51 53 55 57 58 57 55 53 51 49 47 46 46 45 44 43 43 43 42 41 40 40 41 43 44 46 47 49 50
27 28 30 33 35 39 40 39 38 40 43 46 48 49 50 50 49 47 46 45 46 47 51 53 55 55 55 52 50 47 45 45 45 44 43 42 42 42 41 40 40 40 42 43 45 46 48 49 51
25 26 29 31 34 36 38 36 36 39 43 45 46 45 46 46 45 44 42 40 41 42 45 49 52 53 52 49 46 44 44 43 43 42 42 42 42 41 40 40 40 41 43 44 46 47 49 50 52